MEV-1 (44625 NORAD) Tracking and Keplerian Element Data

This shows tracking and keplerian element data for the satellite.

Feedback or suggestion? Click here.




ElementValue
Catalog44625
NameMEV-1
Epoch Orbit156
Epoch Day86.2
Epoch Year2020
RAAN93.442
Inclination0.166
Eccentricity0.0001011
Argument of Perigee54.682
Mean Anonmoly83.355
Mean Motion1.00038055
Decay Rate-2.18E-06
L11 44625U 19067B 20086.20000000 -.00000218 00000-0 00000-0 0 9994
L22 44625 0.1660 93.4420 0001011 54.6820 83.3550 1.00038055 1564

Live tracking and technical data element details for MEV-1 (NORAD 44625). MEV-1 can be tracked NOW for your location showing map with azimuth and elevation plus other details from your city location.

Track the satellite on the map from your city or location and see movement details for azimuth, elevation, latitude, longitude, range, height, and movement on the map or in text.







IsCatalogInMostPopularTable: catalog: 44625, numindb: 53
Update: records affected: 1



GetName: 44625 MEV-1

Hit Count: updated at: Fri, 10 Apr 2020 18:59:04 GMT